Showing default

EXPLORER 22, 899

Orbit data source: Space-Track

EXPLORER 22, 899 is a payload satellite owned by GSFC (US) in LEO that was launched on Sat, 10 Oct 1964 UTC via an SCOUT X-4 launch vehicle from the Air Force Western Test Range (AFWTR). Payloads include a variety of satellites, spacecraft, and rockets equipped with specific instruments for various scientific and technological missions. These include communications satellites like Starlink; space stations such as the ISS; scientific satellites like the Hubble; Earth observation satellites from companies like Planet Labs, Umbra, and HawkEye 360; GPS; miniature CubeSats for education and research; and military/defense satellites.

Loading next visibility...
EXPLORER 22 details
Identifier
899, 1964-064A
Orbit
LEO
Last TLE update21 hours ago
Origin
Flag of USGSFC (US)
ManufacturerAPL
MissionCivil Science
Bus & MotorTRANSIT 5, Unknown motor
Mass52 kg wet, 52 kg dry
Launch date (UTC)
1964-10-10 (60 years ago)
Launch vehicle
SCOUT X-4
Launch site
Air Force Western Test Range (AFWTR)
Object type
Payload
Rocket body
Debris
Shape & HBROct Cyl + 4 Pan + 2 Rod, 4 m
Radar Cross Section1.165 m², Large (>1 m²)

Expand to show TLE details & history

TLE from 21 hours ago
0 EXPLORER 22
1 00899U 64064A   24355.77117396  .00000265  00000-0  22402-3 0  9992
2 00899  79.6904   1.5660 0120319 162.5096 198.0255 13.82779977 29861
Epoch: 2024-12-20T18:30Z
Definitive object data (Epoch: 2024-12-20T18:30:29.43Z)
Latitude-0.00002°
Longitude-5.88853°
Altitude1,040.858 km
Speed7.289 km/s
True Right ascension00h 06m 15s
True Declination0° 00' 00"
Sunlit
Object was in daylight at TLE epoch
Visualization TLE readout
Latitude79.58433°
Longitude73.01533°
Altitude939.143 km
Speed7.403 km/s
Apparent Right ascension03h 20m 22s
Apparent Declination27° 21' 60"
Sunlit
Object is in full shadow
Visualization observer readout
Local Sidereal Time14:48:52
Azimuth352.445° N
Elevation-22.319°
Doppler factor1
Orbital elements
Apogee altitude1,039.52 km
Perigee altitude863.146 km
Semi-major axis7,329.47 km
Eccentricity0.0120319
Inclination79.6904°
RAAN1.566°
Arg. of periapsis162.5096°
True anomaly197.60488°
Mean anomaly198.0255°
Eccentric anomaly197.81459°
Mean motion3.45887 °/min
BSTAR0.00022402
Orbital period104.08 mins
Loading maneuver chart data...
Loading historical data...
Loading historical data...
Loading historical data...
Loading historical data...
Loading historical data...
Loading historical data...
Loading historical data...
Other satellites on launch #64 in the year 1964 (1964-10-10 UTC)

EXPLORER 22 Visibility forecast

Observer location: undefined°, undefined

Span
Click to sort rows by Start time (UTC) header in descending order
Start Az.
Max El. time (UTC)
Max El. Az.
Max El.
End time (UTC)
End Az.
8 mins2024-12-22 00:09:32.075Z129.497° SE2024-12-22 00:13:32.075Z86.222° E20.072°2024-12-22 00:17:32.075Z44.191° NE
10 mins2024-12-22 01:53:32.075Z210.951° SW2024-12-22 01:58:32.075Z295.764° NW39.684°2024-12-22 02:03:32.075Z0.667° NNE
6 mins2024-12-22 11:03:32.075Z32.709° NE2024-12-22 11:05:32.075Z59.214° ENE20.874°2024-12-22 11:09:32.075Z111.124° ESE
9 mins2024-12-22 12:47:32.075Z330.844° NNW2024-12-22 12:51:32.075Z267.886° W35.582°2024-12-22 12:56:32.075Z195.374° SSW
|